Date,TemperatureHighF,TemperatureAvgF,TemperatureLowF,DewpointHighF,DewpointAvgF,DewpointLowF,HumidityHigh,HumidityAvg,HumidityLow,PressureMaxIn,PressureMinIn,WindSpeedMaxMPH,WindSpeedAvgMPH,GustSpeedMaxMPH,PrecipitationSumIn
2013-12-1,49.6,39.8,32.2,38.0,33.3,28.0,91,78,62,30.11,29.96,7,3,0,0.00
2013-12-2,44.4,38.2,32.5,39.0,34.9,30.0,96,88,78,29.96,29.76,10,3,0,0.04
2013-12-3,49.6,44.3,38.4,49.0,43.4,37.0,99,96,94,29.78,29.71,12,4,0,0.00
2013-12-4,61.5,52.7,41.7,59.0,51.9,41.0,100,97,87,29.76,29.56,15,5,0,0.02
2013-12-5,57.1,34.2,25.2,53.0,29.8,19.0,91,84,77,30.24,29.68,14,6,0,0.01
2013-12-6,26.0,23.7,17.1,20.0,18.1,13.0,83,79,77,30.49,30.21,8,3,0,0.00
2013-12-7,25.2,18.1,11.5,14.0,11.3,8.0,85,75,57,30.68,30.50,8,3,0,0.00
2013-12-8,28.9,24.6,18.4,28.0,21.1,14.0,96,86,76,30.55,29.99,14,6,0,0.00
2013-12-9,28.8,24.1,17.9,28.0,19.5,11.0,99,83,71,30.25,29.99,16,8,0,0.00
2013-12-10,28.4,18.4,6.7,16.0,10.6,3.0,84,72,55,30.35,30.15,25,7,0,0.00
2013-12-11,26.9,18.5,6.7,22.0,13.5,1.0,96,81,72,30.60,30.31,13,3,0,0.00
2013-12-12,26.3,13.7,2.1,10.0,3.2,-2.0,83,65,39,30.60,30.32,19,7,0,0.00
2013-12-13,38.6,27.4,16.7,31.0,19.3,9.0,97,73,52,30.32,30.09,12,5,0,0.00
2013-12-14,33.5,31.0,26.9,33.0,30.2,25.0,98,97,93,30.11,29.77,9,4,0,0.13
2013-12-15,28.9,20.1,14.0,27.0,17.4,11.0,93,89,85,30.13,29.96,16,8,0,0.00
2013-12-16,26.7,20.1,15.3,26.0,18.5,13.0,97,93,88,30.14,30.03,8,3,0,0.00
2013-12-17,27.6,22.7,18.5,26.0,21.3,17.0,97,94,83,30.16,30.03,13,7,0,0.00
2013-12-18,39.6,24.7,9.8,29.0,17.9,7.0,90,76,60,30.25,29.96,21,7,0,0.07
2013-12-19,42.6,40.8,38.6,41.0,36.2,29.0,95,84,65,29.97,29.82,18,8,0,0.22
2013-12-20,57.8,50.6,40.5,57.0,49.5,39.0,98,96,90,29.82,29.69,17,9,0,0.13
2013-12-21,39.7,36.3,33.8,38.0,35.7,33.0,99,98,94,29.81,29.43,11,4,0,1.73
2013-12-22,36.9,34.9,30.2,36.0,34.0,28.0,99,96,92,30.09,29.45,18,7,0,0.02
2013-12-23,30.2,23.7,12.2,28.0,20.2,8.0,93,86,77,30.47,30.10,13,7,0,0.00
2013-12-24,19.8,11.9,4.6,16.0,7.5,1.0,92,82,75,30.62,30.46,13,5,0,0.00
2013-12-25,30.3,25.5,19.9,29.0,20.2,15.0,95,80,73,30.48,30.16,14,9,0,0.00
2013-12-26,35.6,30.1,20.2,29.0,24.7,16.0,95,81,70,30.37,30.16,16,7,0,0.00
2013-12-27,45.3,36.3,28.4,36.0,31.3,26.0,91,82,70,30.36,30.20,15,7,0,0.00
2013-12-28,52.2,40.7,35.8,39.0,34.4,32.0,86,79,60,30.20,29.93,14,7,0,0.00
2013-12-29,40.1,33.7,24.7,34.0,30.2,22.0,96,87,78,30.11,29.80,13,6,0,0.00
2013-12-30,24.2,18.7,15.5,21.0,14.6,12.0,89,84,78,30.33,30.11,11,4,0,0.00
2013-12-31,28.1,21.6,15.5,22.0,17.0,12.0,90,82,73,30.41,30.20,17,5,0,0.00